Tracking 31027 objects as of 19-Jul-2025
HD Live streaming from Space Station
objects crossing your sky now

TEIKYOSAT-4 (OORURI)

Track TEIKYOSAT-4 (OORURI) now!
10-day predictions
TEIKYOSAT-4 (OORURI) is classified as:


NORAD ID: 49396
Int'l Code: 2021-102B
Perigee: 541.5 km
Apogee: 558.8 km
Inclination: 97.4 °
Period: 95.5 minutes
Semi major axis: 6921 km
RCS: Unknown
Launch date: November 9, 2021
Source: Japan (JPN)
Launch site: KAGOSHIMA SPACE CENTER UNIVERSITY OF TOKYO (KSCUT)

Uplink (MHz):
Downlink (MHz): 437.450/5831.000
Beacon (MHz): 437.450
Mode: 1k2AFSK/9k6GMSK/115k2FSK CW*
Call sign: JS1YHH
Status: Active

Your satellite tracking list
SPACEBEE-134
Track 1 satellite(s)




NASA's NSSDC Master Catalog

Two Line Element Set (TLE):
1 49396U 21102B   25199.50894995  .00001794  00000-0  12109-3 0  9999
2 49396  97.4083 236.5303 0012535   8.0000 352.1426 15.07773492202417
Source of the keplerian elements: AMSAT